Time,TemperatureF,DewpointF,PressureIn,WindDirection,WindDirectionDegrees,WindSpeedMPH,WindSpeedGustMPH,Humidity,HourlyPrecipIn,Conditions,Clouds,dailyrainin,SoftwareType,DateUTC
2013-10-10 00:03:00,46.9,22.0,23.21,South,191,4.0,4.5,37,0.00,,---,0.00,VWS V14.00,2013-10-10 07:03:00,
2013-10-10 00:08:00,46.9,22.0,23.21,SW,223,5.8,5.8,37,0.00,,---,0.00,VWS V14.00,2013-10-10 07:08:00,
2013-10-10 00:13:00,46.8,21.9,23.21,WNW,298,4.0,5.8,37,0.00,,---,0.00,VWS V14.00,2013-10-10 07:13:00,
2013-10-10 00:18:00,46.6,21.7,23.21,South,191,4.0,4.9,37,0.00,,---,0.00,VWS V14.00,2013-10-10 07:18:00,
2013-10-10 00:23:00,46.4,21.6,23.21,South,177,4.0,4.9,37,0.00,,---,0.00,VWS V14.00,2013-10-10 07:23:00,
2013-10-10 00:28:00,46.4,21.6,23.21,SSW,196,3.1,5.8,37,0.00,,---,0.00,VWS V14.00,2013-10-10 07:28:00,
2013-10-10 00:33:00,46.2,22.0,23.21,South,174,6.3,7.6,38,0.00,,---,0.00,VWS V14.00,2013-10-10 07:33:00,
2013-10-10 00:38:00,46.2,22.0,23.21,SSW,193,0.0,0.0,38,0.00,,---,0.00,VWS V14.00,2013-10-10 07:38:00,
2013-10-10 00:43:00,46.2,22.0,23.21,SSW,208,3.6,5.4,38,0.00,,---,0.00,VWS V14.00,2013-10-10 07:43:00,
2013-10-10 00:48:00,46.2,22.0,23.21,SSW,203,4.0,4.0,38,0.00,,---,0.00,VWS V14.00,2013-10-10 07:48:00,
2013-10-10 00:53:00,46.0,21.9,23.21,SSE,165,3.6,3.6,38,0.00,,---,0.00,VWS V14.00,2013-10-10 07:53:00,
2013-10-10 00:58:00,46.0,21.9,23.21,WSW,243,3.1,4.0,38,0.00,,---,0.00,VWS V14.00,2013-10-10 07:58:00,
2013-10-10 01:03:00,45.9,21.7,23.21,NNW,341,3.1,3.1,38,0.00,,---,0.00,VWS V14.00,2013-10-10 08:03:00,
2013-10-10 01:08:00,45.7,21.5,23.21,South,187,0.0,2.2,38,0.00,,---,0.00,VWS V14.00,2013-10-10 08:08:00,
2013-10-10 01:13:00,45.7,21.5,23.21,SSW,208,3.1,3.1,38,0.00,,---,0.00,VWS V14.00,2013-10-10 08:13:00,
2013-10-10 01:18:00,45.5,21.4,23.21,South,189,2.7,2.7,38,0.00,,---,0.00,VWS V14.00,2013-10-10 08:18:00,
2013-10-10 01:23:00,45.5,21.4,23.21,SW,233,0.0,0.0,38,0.00,,---,0.00,VWS V14.00,2013-10-10 08:23:00,
2013-10-10 01:28:00,45.5,21.4,23.21,WSW,239,2.7,2.7,38,0.00,,---,0.00,VWS V14.00,2013-10-10 08:28:00,
2013-10-10 01:33:00,45.3,21.2,23.21,North,0,3.6,5.8,38,0.00,,---,0.00,VWS V14.00,2013-10-10 08:33:00,
2013-10-10 01:38:00,45.3,21.2,23.21,SSW,204,2.7,2.7,38,0.00,,---,0.00,VWS V14.00,2013-10-10 08:38:00,
2013-10-10 01:43:00,45.1,21.1,23.21,NW,310,3.1,6.3,38,0.00,,---,0.00,VWS V14.00,2013-10-10 08:43:00,
2013-10-10 01:48:00,45.1,21.1,23.21,SSW,205,2.2,2.7,38,0.00,,---,0.00,VWS V14.00,2013-10-10 08:48:00,
2013-10-10 01:53:00,45.1,21.1,23.21,ESE,122,3.1,3.1,38,0.00,,---,0.00,VWS V14.00,2013-10-10 08:53:00,
2013-10-10 01:59:00,45.0,20.9,23.21,SSW,206,0.0,2.2,38,0.00,,---,0.00,VWS V14.00,2013-10-10 08:59:00,
2013-10-10 02:04:00,45.0,20.9,23.18,SSE,163,7.6,7.6,38,0.00,,---,0.00,VWS V14.00,2013-10-10 09:04:00,
2013-10-10 02:09:00,44.8,20.7,23.18,SW,234,2.7,3.1,38,0.00,,---,0.00,VWS V14.00,2013-10-10 09:09:00,
2013-10-10 02:14:00,44.8,20.7,23.18,SSW,198,2.7,4.9,38,0.00,,---,0.00,VWS V14.00,2013-10-10 09:14:00,
2013-10-10 02:19:00,44.6,20.6,23.18,SSW,210,0.0,5.4,38,0.00,,---,0.00,VWS V14.00,2013-10-10 09:19:00,
2013-10-10 02:24:00,44.2,20.3,23.18,SSW,192,4.0,4.0,38,0.00,,---,0.00,VWS V14.00,2013-10-10 09:24:00,
2013-10-10 02:29:00,44.1,20.1,23.18,SSW,205,2.2,4.0,38,0.00,,---,0.00,VWS V14.00,2013-10-10 09:29:00,
2013-10-10 02:34:00,43.7,19.8,23.18,WNW,297,5.4,5.8,38,0.00,,---,0.00,VWS V14.00,2013-10-10 09:34:00,
2013-10-10 02:39:00,43.5,19.6,23.18,SW,220,2.7,3.6,38,0.00,,---,0.00,VWS V14.00,2013-10-10 09:39:00,
2013-10-10 02:44:00,43.3,19.5,23.18,SSW,194,2.7,4.0,38,0.00,,---,0.00,VWS V14.00,2013-10-10 09:44:00,
2013-10-10 02:49:00,43.2,19.3,23.18,WSW,249,2.7,3.6,38,0.00,,---,0.00,VWS V14.00,2013-10-10 09:49:00,
2013-10-10 02:54:00,43.2,19.3,23.18,SSW,200,4.9,4.9,38,0.00,,---,0.00,VWS V14.00,2013-10-10 09:54:00,
2013-10-10 02:59:00,43.2,19.3,23.18,SSW,192,4.0,8.1,38,0.00,,---,0.00,VWS V14.00,2013-10-10 09:59:00,
2013-10-10 03:04:00,43.2,19.3,23.18,SW,216,5.4,5.4,38,0.00,,---,0.00,VWS V14.00,2013-10-10 10:04:00,
2013-10-10 03:09:00,43.2,19.3,23.18,SSW,203,0.0,0.0,38,0.00,,---,0.00,VWS V14.00,2013-10-10 10:09:00,
2013-10-10 03:14:00,43.2,19.3,23.18,SSW,203,4.9,4.9,38,0.00,,---,0.00,VWS V14.00,2013-10-10 10:14:00,
2013-10-10 03:19:00,43.2,19.3,23.18,ENE,73,5.8,8.7,38,0.00,,---,0.00,VWS V14.00,2013-10-10 10:19:00,
2013-10-10 03:24:00,43.2,19.3,23.18,SW,228,4.0,4.9,38,0.00,,---,0.00,VWS V14.00,2013-10-10 10:24:00,
2013-10-10 03:29:00,43.2,19.3,23.18,West,278,5.8,8.1,38,0.00,,---,0.00,VWS V14.00,2013-10-10 10:29:00,
2013-10-10 03:34:00,43.0,19.1,23.18,SSW,198,4.9,5.8,38,0.00,,---,0.00,VWS V14.00,2013-10-10 10:34:00,
2013-10-10 03:39:00,42.6,19.4,23.18,SSW,208,2.7,3.1,39,0.00,,---,0.00,VWS V14.00,2013-10-10 10:39:00,
2013-10-10 03:44:00,41.9,18.8,23.18,South,187,5.8,5.8,39,0.00,,---,0.00,VWS V14.00,2013-10-10 10:44:00,
2013-10-10 03:49:00,41.2,18.1,23.18,West,273,6.3,6.3,39,0.00,,---,0.00,VWS V14.00,2013-10-10 10:49:00,
2013-10-10 03:54:00,41.0,18.0,23.18,SSW,212,5.4,5.4,39,0.00,,---,0.00,VWS V14.00,2013-10-10 10:54:00,
2013-10-10 03:59:00,40.6,17.6,23.18,SSW,202,2.7,2.7,39,0.00,,---,0.00,VWS V14.00,2013-10-10 10:59:00,
2013-10-10 04:04:00,40.6,17.6,23.18,WSW,257,0.0,0.0,39,0.00,,---,0.00,VWS V14.00,2013-10-10 11:04:00,
2013-10-10 04:09:00,40.8,17.8,23.18,NE,40,3.1,3.1,39,0.00,,---,0.00,VWS V14.00,2013-10-10 11:09:00,
2013-10-10 04:14:00,40.8,17.8,23.18,SSW,195,3.6,3.6,39,0.00,,---,0.00,VWS V14.00,2013-10-10 11:14:00,
2013-10-10 04:19:00,40.6,17.6,23.18,SSW,208,0.0,4.0,39,0.00,,---,0.00,VWS V14.00,2013-10-10 11:19:00,
2013-10-10 04:25:00,40.6,17.6,23.18,NW,306,3.6,4.9,39,0.00,,---,0.00,VWS V14.00,2013-10-10 11:25:00,
2013-10-10 04:30:00,40.6,17.6,23.18,SW,230,3.6,7.2,39,0.00,,---,0.00,VWS V14.00,2013-10-10 11:30:00,
2013-10-10 04:35:00,40.6,17.6,23.18,SSW,201,2.7,3.6,39,0.00,,---,0.00,VWS V14.00,2013-10-10 11:35:00,
2013-10-10 04:40:00,40.5,17.5,23.18,SSW,203,4.0,10.5,39,0.00,,---,0.00,VWS V14.00,2013-10-10 11:40:00,
2013-10-10 04:45:00,40.5,17.5,23.18,SSW,203,3.6,4.0,39,0.00,,---,0.00,VWS V14.00,2013-10-10 11:45:00,
2013-10-10 04:50:00,40.5,17.5,23.18,SSW,208,5.4,8.3,39,0.00,,---,0.00,VWS V14.00,2013-10-10 11:50:00,
2013-10-10 04:55:00,40.5,17.5,23.18,ENE,78,4.0,5.4,39,0.00,,---,0.00,VWS V14.00,2013-10-10 11:55:00,
2013-10-10 05:00:00,40.5,17.5,23.18,SSW,208,4.9,7.2,39,0.00,,---,0.00,VWS V14.00,2013-10-10 12:00:00,
2013-10-10 05:05:00,40.5,17.5,23.18,SSW,197,3.6,5.4,39,0.00,,---,0.00,VWS V14.00,2013-10-10 12:05:00,
2013-10-10 05:10:00,40.3,17.3,23.18,SSW,207,4.0,4.0,39,0.00,,---,0.00,VWS V14.00,2013-10-10 12:10:00,
2013-10-10 05:15:00,40.3,17.3,23.18,WSW,246,2.7,3.6,39,0.00,,---,0.00,VWS V14.00,2013-10-10 12:15:00,
2013-10-10 05:20:00,40.3,17.3,23.18,SW,234,5.8,7.2,39,0.00,,---,0.00,VWS V14.00,2013-10-10 12:20:00,
2013-10-10 05:25:00,40.1,17.1,23.18,West,281,8.7,10.1,39,0.00,,---,0.00,VWS V14.00,2013-10-10 12:25:00,
2013-10-10 05:30:00,39.2,16.3,23.18,SW,235,4.9,6.3,39,0.00,,---,0.00,VWS V14.00,2013-10-10 12:30:00,
2013-10-10 05:35:00,38.3,15.5,23.18,West,269,3.6,3.6,39,0.00,,---,0.00,VWS V14.00,2013-10-10 12:35:00,
2013-10-10 05:40:00,37.4,14.7,23.18,WSW,242,3.1,3.1,39,0.00,,---,0.00,VWS V14.00,2013-10-10 12:40:00,
2013-10-10 05:45:00,36.7,14.6,23.18,WSW,244,0.0,0.0,40,0.00,,---,0.00,VWS V14.00,2013-10-10 12:45:00,
2013-10-10 05:50:00,36.1,14.2,23.21,WSW,254,3.1,5.8,40,0.00,,---,0.00,VWS V14.00,2013-10-10 12:50:00,
2013-10-10 05:55:00,35.8,13.8,23.21,SW,216,0.0,0.0,40,0.00,,---,0.00,VWS V14.00,2013-10-10 12:55:00,
2013-10-10 06:00:00,35.4,13.5,23.21,WSW,255,0.0,0.0,40,0.00,,---,0.00,VWS V14.00,2013-10-10 13:00:00,
2013-10-10 06:05:00,35.2,13.4,23.21,WSW,255,0.0,0.0,40,0.00,,---,0.00,VWS V14.00,2013-10-10 13:05:00,
2013-10-10 06:10:00,35.2,13.4,23.21,WSW,255,0.0,0.0,40,0.00,,---,0.00,VWS V14.00,2013-10-10 13:10:00,
2013-10-10 06:15:00,35.1,13.8,23.21,West,267,0.0,0.0,41,0.00,,---,0.00,VWS V14.00,2013-10-10 13:15:00,
2013-10-10 06:20:00,35.2,13.9,23.21,West,267,0.0,0.0,41,0.00,,---,0.00,VWS V14.00,2013-10-10 13:20:00,
2013-10-10 06:25:00,35.1,13.8,23.21,West,267,0.0,0.0,41,0.00,,---,0.00,VWS V14.00,2013-10-10 13:25:00,
2013-10-10 06:30:00,35.1,13.8,23.21,SW,234,0.0,0.0,41,0.00,,---,0.00,VWS V14.00,2013-10-10 13:30:00,
2013-10-10 06:35:00,35.2,13.9,23.21,WSW,240,0.0,0.0,41,0.00,,---,0.00,VWS V14.00,2013-10-10 13:35:00,
2013-10-10 06:40:00,35.2,13.9,23.21,WNW,289,0.0,4.0,41,0.00,,---,0.00,VWS V14.00,2013-10-10 13:40:00,
2013-10-10 06:46:00,35.2,13.9,23.21,WSW,253,0.0,2.2,41,0.00,,---,0.00,VWS V14.00,2013-10-10 13:46:00,
2013-10-10 06:51:00,35.2,13.9,23.21,WNW,293,3.1,3.1,41,0.00,,---,0.00,VWS V14.00,2013-10-10 13:51:00,
2013-10-10 06:56:00,35.2,13.9,23.21,WSW,237,0.0,0.0,41,0.00,,---,0.00,VWS V14.00,2013-10-10 13:56:00,
2013-10-10 07:01:00,35.2,13.9,23.21,West,265,0.0,0.0,41,0.00,,---,0.00,VWS V14.00,2013-10-10 14:01:00,
2013-10-10 07:06:00,35.2,13.9,23.21,SW,232,0.0,0.0,41,0.00,,---,0.00,VWS V14.00,2013-10-10 14:06:00,
2013-10-10 07:11:00,35.2,13.9,23.21,WNW,297,0.0,0.0,41,0.00,,---,0.00,VWS V14.00,2013-10-10 14:11:00,
2013-10-10 07:16:00,35.2,13.9,23.21,SW,229,0.0,0.0,41,0.00,,---,0.00,VWS V14.00,2013-10-10 14:16:00,
2013-10-10 07:21:00,35.1,13.8,23.21,WSW,249,0.0,0.0,41,0.00,,---,0.00,VWS V14.00,2013-10-10 14:21:00,
2013-10-10 07:26:00,35.2,13.9,23.21,SW,235,0.0,0.0,41,0.00,,---,0.00,VWS V14.00,2013-10-10 14:26:00,
2013-10-10 07:31:00,35.2,13.9,23.21,SW,231,0.0,0.0,41,0.00,,---,0.00,VWS V14.00,2013-10-10 14:31:00,
2013-10-10 07:36:00,35.2,13.9,23.21,SW,229,0.0,3.1,41,0.00,,---,0.00,VWS V14.00,2013-10-10 14:36:00,
2013-10-10 07:41:00,35.1,14.3,23.21,WSW,249,0.0,0.0,42,0.00,,---,0.00,VWS V14.00,2013-10-10 14:41:00,
2013-10-10 07:46:00,35.1,14.3,23.21,NNW,336,0.0,0.0,42,0.00,,---,0.00,VWS V14.00,2013-10-10 14:46:00,
2013-10-10 07:51:00,35.1,14.3,23.21,WNW,300,0.0,0.0,42,0.00,,---,0.00,VWS V14.00,2013-10-10 14:51:00,
2013-10-10 07:56:00,35.1,14.3,23.21,West,272,0.0,0.0,42,0.00,,---,0.00,VWS V14.00,2013-10-10 14:56:00,
2013-10-10 08:01:00,35.1,14.3,23.21,SW,235,0.0,0.0,42,0.00,,---,0.00,VWS V14.00,2013-10-10 15:01:00,
2013-10-10 08:06:00,35.2,14.5,23.24,WSW,253,0.0,0.0,42,0.00,,---,0.00,VWS V14.00,2013-10-10 15:06:00,
2013-10-10 08:11:00,35.1,14.3,23.24,NW,308,3.6,5.8,42,0.00,,---,0.00,VWS V14.00,2013-10-10 15:11:00,
2013-10-10 08:16:00,34.9,14.1,23.24,West,270,3.1,3.1,42,0.00,,---,0.00,VWS V14.00,2013-10-10 15:16:00,
2013-10-10 08:21:00,34.9,14.1,23.24,SW,232,0.0,0.0,42,0.00,,---,0.00,VWS V14.00,2013-10-10 15:21:00,
2013-10-10 08:26:00,34.7,14.0,23.24,SW,219,0.0,2.7,42,0.00,,---,0.00,VWS V14.00,2013-10-10 15:26:00,
2013-10-10 08:31:00,34.7,14.0,23.24,SW,225,4.9,4.9,42,0.00,,---,0.00,VWS V14.00,2013-10-10 15:31:00,
2013-10-10 08:36:00,34.7,14.0,23.24,West,275,0.0,0.0,42,0.00,,---,0.00,VWS V14.00,2013-10-10 15:36:00,
2013-10-10 08:41:00,34.9,14.1,23.24,WNW,300,0.0,0.0,42,0.00,,---,0.00,VWS V14.00,2013-10-10 15:41:00,
2013-10-10 08:46:00,35.1,14.3,23.24,SW,218,4.0,5.4,42,0.00,,---,0.00,VWS V14.00,2013-10-10 15:46:00,
2013-10-10 08:51:00,35.1,14.3,23.24,WNW,283,0.0,0.0,42,0.00,,---,0.00,VWS V14.00,2013-10-10 15:51:00,
2013-10-10 08:56:00,35.1,14.3,23.24,WSW,251,2.2,2.7,42,0.00,,---,0.00,VWS V14.00,2013-10-10 15:56:00,
2013-10-10 09:02:00,35.1,14.3,23.24,WSW,256,0.0,0.0,42,0.00,,---,0.00,VWS V14.00,2013-10-10 16:02:00,
2013-10-10 09:07:00,35.1,14.3,23.24,WSW,243,0.0,0.0,42,0.00,,---,0.00,VWS V14.00,2013-10-10 16:07:00,
2013-10-10 09:12:00,35.1,14.3,23.24,West,265,2.7,5.4,42,0.00,,---,0.00,VWS V14.00,2013-10-10 16:12:00,
2013-10-10 09:17:00,35.2,14.5,23.24,SW,228,2.7,4.0,42,0.00,,---,0.00,VWS V14.00,2013-10-10 16:17:00,
2013-10-10 09:22:00,35.4,14.6,23.24,West,265,0.0,2.7,42,0.00,,---,0.00,VWS V14.00,2013-10-10 16:22:00,
2013-10-10 09:27:00,35.8,14.9,23.24,WNW,287,0.0,3.6,42,0.00,,---,0.00,VWS V14.00,2013-10-10 16:27:00,
2013-10-10 09:32:00,36.3,16.0,23.24,WSW,250,2.2,4.0,43,0.00,,---,0.00,VWS V14.00,2013-10-10 16:32:00,
2013-10-10 09:37:00,36.9,16.5,23.24,SSW,201,0.0,2.7,43,0.00,,---,0.00,VWS V14.00,2013-10-10 16:37:00,
2013-10-10 09:42:00,37.4,16.4,23.24,SW,228,0.0,0.0,42,0.00,,---,0.00,VWS V14.00,2013-10-10 16:42:00,
2013-10-10 09:47:00,37.4,16.4,23.24,WSW,258,0.0,0.0,42,0.00,,---,0.00,VWS V14.00,2013-10-10 16:47:00,
2013-10-10 09:52:00,37.6,16.6,23.27,SW,215,2.7,2.7,42,0.04,,---,0.04,VWS V14.00,2013-10-10 16:52:00,
2013-10-10 09:57:00,37.9,16.9,23.27,SW,224,3.1,3.1,42,0.04,,---,0.04,VWS V14.00,2013-10-10 16:57:00,
2013-10-10 10:02:00,38.5,17.4,23.27,SW,221,5.4,5.4,42,0.04,,---,0.04,VWS V14.00,2013-10-10 17:02:00,
2013-10-10 10:07:00,39.4,17.7,23.27,SSW,196,2.7,3.6,41,0.04,,---,0.04,VWS V14.00,2013-10-10 17:07:00,
2013-10-10 10:12:00,40.3,18.5,23.27,SW,236,2.7,2.7,41,0.04,,---,0.04,VWS V14.00,2013-10-10 17:12:00,
2013-10-10 10:17:00,40.8,19.0,23.24,SW,232,2.7,3.1,41,0.04,,---,0.04,VWS V14.00,2013-10-10 17:17:00,
2013-10-10 10:22:00,41.7,19.2,23.24,SSW,207,3.1,5.4,40,0.04,,---,0.04,VWS V14.00,2013-10-10 17:22:00,
2013-10-10 10:27:00,41.5,18.4,23.24,WSW,252,0.0,0.0,39,0.08,,---,0.08,VWS V14.00,2013-10-10 17:27:00,
2013-10-10 10:32:00,41.0,18.0,23.27,SW,224,2.7,4.9,39,0.08,,---,0.08,VWS V14.00,2013-10-10 17:32:00,
2013-10-10 10:37:00,40.3,17.3,23.27,SSW,210,2.7,2.7,39,0.08,,---,0.08,VWS V14.00,2013-10-10 17:37:00,
2013-10-10 10:42:00,39.2,16.3,23.27,WNW,300,5.8,6.3,39,0.08,,---,0.08,VWS V14.00,2013-10-10 17:42:00,
2013-10-10 10:47:00,37.8,15.0,23.27,SSW,208,0.0,2.2,39,0.08,,---,0.08,VWS V14.00,2013-10-10 17:47:00,
2013-10-10 10:52:00,36.9,14.8,23.27,WSW,258,0.0,0.0,40,0.04,,---,0.08,VWS V14.00,2013-10-10 17:52:00,
2013-10-10 10:57:00,36.1,14.2,23.27,SSW,211,5.4,5.8,40,0.04,,---,0.08,VWS V14.00,2013-10-10 17:57:00,
2013-10-10 11:02:00,36.1,14.2,23.27,WSW,251,5.4,5.8,40,0.04,,---,0.08,VWS V14.00,2013-10-10 18:02:00,
2013-10-10 11:07:00,36.0,14.0,23.27,SW,234,2.7,2.7,40,0.04,,---,0.08,VWS V14.00,2013-10-10 18:07:00,
2013-10-10 11:12:00,36.1,14.2,23.27,SSW,211,2.7,5.4,40,0.04,,---,0.08,VWS V14.00,2013-10-10 18:12:00,
2013-10-10 11:18:00,37.0,15.0,23.27,SW,233,7.6,7.6,40,0.04,,---,0.08,VWS V14.00,2013-10-10 18:18:00,
2013-10-10 11:23:00,37.6,15.5,23.27,WSW,238,9.6,9.6,40,0.04,,---,0.08,VWS V14.00,2013-10-10 18:23:00,
2013-10-10 11:28:00,38.3,16.1,23.27,WSW,241,0.0,2.2,40,0.00,,---,0.08,VWS V14.00,2013-10-10 18:28:00,
2013-10-10 11:33:00,38.5,16.3,23.27,South,190,6.3,8.3,40,0.00,,---,0.08,VWS V14.00,2013-10-10 18:33:00,
2013-10-10 11:38:00,39.0,16.8,23.27,SW,232,2.7,6.3,40,0.00,,---,0.08,VWS V14.00,2013-10-10 18:38:00,
2013-10-10 11:43:00,40.5,18.1,23.27,South,183,4.9,5.4,40,0.04,,---,0.12,VWS V14.00,2013-10-10 18:43:00,
2013-10-10 11:48:00,40.8,17.8,23.30,SW,224,6.3,6.3,39,0.04,,---,0.12,VWS V14.00,2013-10-10 18:48:00,
2013-10-10 11:53:00,41.0,18.0,23.30,SW,220,4.9,6.3,39,0.04,,---,0.12,VWS V14.00,2013-10-10 18:53:00,
2013-10-10 11:58:00,41.0,18.0,23.30,NW,314,8.1,8.1,39,0.04,,---,0.12,VWS V14.00,2013-10-10 18:58:00,
2013-10-10 12:03:00,40.5,17.5,23.30,West,264,8.1,8.1,39,0.04,,---,0.12,VWS V14.00,2013-10-10 19:03:00,
2013-10-10 12:08:00,40.3,17.3,23.30,SSW,206,2.7,5.4,39,0.04,,---,0.12,VWS V14.00,2013-10-10 19:08:00,
2013-10-10 12:13:00,40.1,17.1,23.30,SW,219,3.6,3.6,39,0.04,,---,0.12,VWS V14.00,2013-10-10 19:13:00,
2013-10-10 12:18:00,39.9,17.0,23.30,NW,306,5.8,5.8,39,0.04,,---,0.12,VWS V14.00,2013-10-10 19:18:00,
2013-10-10 12:23:00,39.7,16.8,23.30,WNW,287,5.4,5.4,39,0.04,,---,0.12,VWS V14.00,2013-10-10 19:23:00,
2013-10-10 12:28:00,39.2,16.3,23.30,SW,217,7.6,7.6,39,0.04,,---,0.12,VWS V14.00,2013-10-10 19:28:00,
2013-10-10 12:33:00,38.5,15.7,23.30,SSW,192,7.2,7.2,39,0.04,,---,0.12,VWS V14.00,2013-10-10 19:33:00,
2013-10-10 12:38:00,38.1,15.9,23.30,NW,306,3.6,3.6,40,0.04,,---,0.12,VWS V14.00,2013-10-10 19:38:00,
2013-10-10 12:43:00,38.1,15.9,23.30,WSW,257,2.7,4.0,40,0.00,,---,0.12,VWS V14.00,2013-10-10 19:43:00,
2013-10-10 12:48:00,38.5,16.3,23.30,SW,221,4.9,6.3,40,0.00,,---,0.12,VWS V14.00,2013-10-10 19:48:00,
2013-10-10 12:53:00,38.7,16.4,23.30,SW,221,2.7,4.9,40,0.00,,---,0.12,VWS V14.00,2013-10-10 19:53:00,
2013-10-10 12:58:00,38.7,16.4,23.30,SSW,193,4.0,4.9,40,0.00,,---,0.12,VWS V14.00,2013-10-10 19:58:00,
2013-10-10 13:03:00,38.5,16.3,23.30,South,174,4.0,4.0,40,0.00,,---,0.12,VWS V14.00,2013-10-10 20:03:00,
2013-10-10 13:08:00,38.3,16.1,23.30,WSW,245,5.8,6.7,40,0.00,,---,0.12,VWS V14.00,2013-10-10 20:08:00,
2013-10-10 13:13:00,38.5,16.3,23.30,WSW,237,3.1,4.9,40,0.00,,---,0.12,VWS V14.00,2013-10-10 20:13:00,
2013-10-10 13:18:00,38.7,16.4,23.30,WSW,244,6.3,6.3,40,0.00,,---,0.12,VWS V14.00,2013-10-10 20:18:00,
2013-10-10 13:23:00,39.0,16.8,23.30,WSW,237,2.7,3.6,40,0.00,,---,0.12,VWS V14.00,2013-10-10 20:23:00,
2013-10-10 13:28:00,39.4,16.5,23.30,SW,226,3.1,5.8,39,0.00,,---,0.12,VWS V14.00,2013-10-10 20:28:00,
2013-10-10 13:32:00,39.6,16.7,23.30,WNW,294,3.1,5.4,39,0.00,,---,0.12,VWS V14.00,2013-10-10 20:32:00,
2013-10-10 13:37:00,39.4,16.5,23.30,NW,325,5.8,8.7,39,0.00,,---,0.12,VWS V14.00,2013-10-10 20:37:00,
2013-10-10 13:42:00,39.6,16.7,23.30,SW,224,6.3,6.3,39,0.00,,---,0.12,VWS V14.00,2013-10-10 20:42:00,
2013-10-10 13:47:00,39.6,16.7,23.30,West,260,2.7,4.0,39,0.00,,---,0.12,VWS V14.00,2013-10-10 20:47:00,
2013-10-10 13:52:00,39.9,17.0,23.33,SW,220,4.9,5.4,39,0.00,,---,0.12,VWS V14.00,2013-10-10 20:52:00,
2013-10-10 13:57:00,39.9,17.0,23.33,West,266,7.6,7.6,39,0.00,,---,0.12,VWS V14.00,2013-10-10 20:57:00,
2013-10-10 14:02:00,39.9,17.0,23.33,SW,226,3.1,4.0,39,0.00,,---,0.12,VWS V14.00,2013-10-10 21:02:00,
2013-10-10 14:07:00,40.3,17.3,23.33,WSW,238,6.7,6.7,39,0.00,,---,0.12,VWS V14.00,2013-10-10 21:07:00,
2013-10-10 14:12:00,40.5,17.5,23.33,SW,220,3.1,4.0,39,0.00,,---,0.12,VWS V14.00,2013-10-10 21:12:00,
2013-10-10 14:17:00,40.6,17.6,23.33,SSW,209,8.1,12.3,39,0.00,,---,0.12,VWS V14.00,2013-10-10 21:17:00,
2013-10-10 14:22:00,40.6,17.6,23.33,WSW,237,3.6,5.8,39,0.00,,---,0.12,VWS V14.00,2013-10-10 21:22:00,
2013-10-10 14:27:00,41.0,18.0,23.33,SW,234,2.7,6.3,39,0.00,,---,0.12,VWS V14.00,2013-10-10 21:27:00,
2013-10-10 14:32:00,41.0,18.0,23.33,SW,221,3.1,3.1,39,0.00,,---,0.12,VWS V14.00,2013-10-10 21:32:00,
2013-10-10 14:37:00,40.5,17.5,23.33,WSW,245,4.5,4.5,39,0.00,,---,0.12,VWS V14.00,2013-10-10 21:37:00,
2013-10-10 14:42:00,40.3,17.3,23.33,SSW,199,3.1,5.8,39,0.00,,---,0.12,VWS V14.00,2013-10-10 21:42:00,
2013-10-10 14:47:00,39.9,17.0,23.33,WSW,247,2.7,2.7,39,0.00,,---,0.12,VWS V14.00,2013-10-10 21:47:00,
2013-10-10 14:52:00,39.9,17.0,23.33,SW,217,3.1,3.1,39,0.00,,---,0.12,VWS V14.00,2013-10-10 21:52:00,
2013-10-10 14:57:00,40.1,17.1,23.33,West,277,10.1,10.1,39,0.00,,---,0.12,VWS V14.00,2013-10-10 21:57:00,
2013-10-10 15:02:00,40.3,17.3,23.33,SSW,212,2.2,4.9,39,0.00,,---,0.12,VWS V14.00,2013-10-10 22:02:00,
2013-10-10 15:07:00,40.3,17.3,23.33,SW,218,3.6,3.6,39,0.00,,---,0.12,VWS V14.00,2013-10-10 22:07:00,
2013-10-10 15:12:00,40.6,17.6,23.33,SSW,207,6.3,8.3,39,0.00,,---,0.12,VWS V14.00,2013-10-10 22:12:00,
2013-10-10 15:17:00,40.3,17.3,23.33,West,275,6.3,6.3,39,0.00,,---,0.12,VWS V14.00,2013-10-10 22:17:00,
2013-10-10 15:22:00,40.3,17.3,23.33,NW,312,4.0,4.0,39,0.00,,---,0.12,VWS V14.00,2013-10-10 22:22:00,
2013-10-10 15:27:00,40.3,17.3,23.33,West,260,5.8,6.3,39,0.00,,---,0.12,VWS V14.00,2013-10-10 22:27:00,
2013-10-10 15:32:00,40.1,17.1,23.36,WNW,290,2.7,2.7,39,0.00,,---,0.12,VWS V14.00,2013-10-10 22:32:00,
2013-10-10 15:37:00,39.7,16.8,23.36,West,268,6.3,6.3,39,0.00,,---,0.12,VWS V14.00,2013-10-10 22:37:00,
2013-10-10 15:43:00,39.7,16.8,23.36,West,264,3.6,5.4,39,0.00,,---,0.12,VWS V14.00,2013-10-10 22:43:00,
2013-10-10 15:48:00,39.7,16.8,23.33,WSW,258,4.9,10.5,39,0.00,,---,0.12,VWS V14.00,2013-10-10 22:48:00,
2013-10-10 15:53:00,40.1,17.1,23.33,SW,217,5.4,5.4,39,0.00,,---,0.12,VWS V14.00,2013-10-10 22:53:00,
2013-10-10 15:58:00,40.6,17.6,23.33,WSW,257,7.6,7.6,39,0.00,,---,0.12,VWS V14.00,2013-10-10 22:58:00,
2013-10-10 16:03:00,41.2,18.1,23.33,West,270,3.1,5.4,39,0.00,,---,0.12,VWS V14.00,2013-10-10 23:03:00,
2013-10-10 16:08:00,41.2,18.1,23.33,North,0,6.3,8.1,39,0.00,,---,0.12,VWS V14.00,2013-10-10 23:08:00,
2013-10-10 16:13:00,41.0,18.0,23.33,WSW,244,4.9,7.6,39,0.00,,---,0.12,VWS V14.00,2013-10-10 23:13:00,
2013-10-10 16:18:00,41.4,18.3,23.36,WNW,283,4.0,7.6,39,0.00,,---,0.12,VWS V14.00,2013-10-10 23:18:00,
2013-10-10 16:23:00,41.5,18.4,23.36,West,274,3.6,7.2,39,0.00,,---,0.12,VWS V14.00,2013-10-10 23:23:00,
2013-10-10 16:28:00,41.5,18.4,23.36,SW,236,4.0,7.2,39,0.00,,---,0.12,VWS V14.00,2013-10-10 23:28:00,
2013-10-10 16:33:00,41.2,18.1,23.36,WSW,252,4.9,4.9,39,0.00,,---,0.12,VWS V14.00,2013-10-10 23:33:00,
2013-10-10 16:38:00,41.0,18.0,23.36,West,260,2.7,5.8,39,0.00,,---,0.12,VWS V14.00,2013-10-10 23:38:00,
2013-10-10 16:43:00,40.6,17.6,23.36,West,273,2.2,2.2,39,0.00,,---,0.12,VWS V14.00,2013-10-10 23:43:00,
2013-10-10 16:48:00,40.5,17.5,23.36,NW,307,6.3,6.3,39,0.00,,---,0.12,VWS V14.00,2013-10-10 23:48:00,
2013-10-10 16:53:00,40.5,17.5,23.36,SSW,205,3.1,5.8,39,0.00,,---,0.12,VWS V14.00,2013-10-10 23:53:00,
2013-10-10 16:58:00,40.3,17.3,23.36,West,266,3.6,3.6,39,0.00,,---,0.12,VWS V14.00,2013-10-10 23:58:00,
2013-10-10 17:03:00,39.9,17.0,23.36,WSW,243,2.7,2.7,39,0.00,,---,0.12,VWS V14.00,2013-10-11 00:03:00,
2013-10-10 17:08:00,39.7,16.8,23.36,SW,229,4.0,4.0,39,0.00,,---,0.12,VWS V14.00,2013-10-11 00:08:00,
2013-10-10 17:13:00,39.7,16.8,23.36,SW,234,5.4,5.4,39,0.00,,---,0.12,VWS V14.00,2013-10-11 00:13:00,
2013-10-10 17:18:00,39.6,16.7,23.36,WSW,249,2.7,3.1,39,0.00,,---,0.12,VWS V14.00,2013-10-11 00:18:00,
2013-10-10 17:23:00,39.4,16.5,23.36,WNW,286,4.9,5.4,39,0.00,,---,0.12,VWS V14.00,2013-10-11 00:23:00,
2013-10-10 17:28:00,39.4,16.5,23.36,West,263,3.1,3.1,39,0.00,,---,0.12,VWS V14.00,2013-10-11 00:28:00,
2013-10-10 17:33:00,39.2,16.3,23.36,West,278,2.7,4.0,39,0.00,,---,0.12,VWS V14.00,2013-10-11 00:33:00,
2013-10-10 17:38:00,39.2,16.3,23.36,WNW,300,3.6,3.6,39,0.00,,---,0.12,VWS V14.00,2013-10-11 00:38:00,
2013-10-10 17:43:00,39.0,16.8,23.36,WSW,240,3.1,3.1,40,0.00,,---,0.12,VWS V14.00,2013-10-11 00:43:00,
2013-10-10 17:48:00,38.8,16.6,23.36,West,267,4.5,4.9,40,0.00,,---,0.12,VWS V14.00,2013-10-11 00:48:00,
2013-10-10 17:53:00,38.8,16.6,23.36,SSW,208,4.0,4.0,40,0.00,,---,0.12,VWS V14.00,2013-10-11 00:53:00,
2013-10-10 17:59:00,38.7,16.4,23.36,WNW,298,6.3,6.3,40,0.00,,---,0.12,VWS V14.00,2013-10-11 00:59:00,
2013-10-10 18:04:00,38.7,16.4,23.36,West,266,4.9,4.9,40,0.00,,---,0.12,VWS V14.00,2013-10-11 01:04:00,
2013-10-10 18:09:00,38.5,16.3,23.36,SSW,202,4.0,5.8,40,0.00,,---,0.12,VWS V14.00,2013-10-11 01:09:00,
2013-10-10 18:14:00,38.5,16.3,23.36,WNW,287,3.1,3.1,40,0.00,,---,0.12,VWS V14.00,2013-10-11 01:14:00,
2013-10-10 18:19:00,38.3,16.1,23.39,WSW,243,4.0,6.3,40,0.00,,---,0.12,VWS V14.00,2013-10-11 01:19:00,
2013-10-10 18:24:00,38.3,16.1,23.39,West,280,2.2,4.0,40,0.00,,---,0.12,VWS V14.00,2013-10-11 01:24:00,
2013-10-10 18:29:00,38.3,16.1,23.39,West,267,2.7,3.1,40,0.00,,---,0.12,VWS V14.00,2013-10-11 01:29:00,
2013-10-10 18:34:00,38.3,16.1,23.39,West,281,2.7,3.1,40,0.00,,---,0.12,VWS V14.00,2013-10-11 01:34:00,
2013-10-10 18:39:00,38.1,15.9,23.39,SW,224,2.7,3.6,40,0.00,,---,0.12,VWS V14.00,2013-10-11 01:39:00,
2013-10-10 18:44:00,38.1,15.9,23.39,West,260,3.1,4.0,40,0.00,,---,0.12,VWS V14.00,2013-10-11 01:44:00,
2013-10-10 18:49:00,38.1,15.9,23.39,WNW,291,2.2,2.2,40,0.00,,---,0.12,VWS V14.00,2013-10-11 01:49:00,
2013-10-10 18:54:00,38.1,15.9,23.39,West,276,2.7,2.7,40,0.00,,---,0.12,VWS V14.00,2013-10-11 01:54:00,
2013-10-10 18:59:00,38.1,15.9,23.39,WSW,243,2.7,2.7,40,0.00,,---,0.12,VWS V14.00,2013-10-11 01:59:00,
2013-10-10 19:04:00,38.1,15.9,23.39,WSW,238,2.7,2.7,40,0.00,,---,0.12,VWS V14.00,2013-10-11 02:04:00,
2013-10-10 19:09:00,37.9,15.8,23.39,West,274,3.6,3.6,40,0.00,,---,0.12,VWS V14.00,2013-10-11 02:09:00,
2013-10-10 19:14:00,37.9,15.8,23.39,SW,230,0.0,0.0,40,0.00,,---,0.12,VWS V14.00,2013-10-11 02:14:00,
2013-10-10 19:20:00,37.9,15.8,23.39,WNW,301,2.7,2.7,40,0.00,,---,0.12,VWS V14.00,2013-10-11 02:20:00,
2013-10-10 19:25:00,37.9,15.8,23.39,WNW,288,2.7,4.0,40,0.00,,---,0.12,VWS V14.00,2013-10-11 02:25:00,
2013-10-10 19:30:00,37.9,15.8,23.39,WSW,258,2.2,3.1,40,0.00,,---,0.12,VWS V14.00,2013-10-11 02:30:00,
2013-10-10 19:35:00,37.9,15.8,23.39,West,269,2.7,2.7,40,0.00,,---,0.12,VWS V14.00,2013-10-11 02:35:00,
2013-10-10 19:40:00,37.9,15.8,23.39,West,277,3.1,3.1,40,0.00,,---,0.12,VWS V14.00,2013-10-11 02:40:00,
2013-10-10 19:45:00,37.9,15.8,23.39,West,265,0.0,0.0,40,0.00,,---,0.12,VWS V14.00,2013-10-11 02:45:00,
2013-10-10 19:50:00,37.9,15.8,23.39,NNW,332,3.1,3.1,40,0.00,,---,0.12,VWS V14.00,2013-10-11 02:50:00,
2013-10-10 19:55:00,37.8,15.6,23.39,WNW,300,2.7,3.6,40,0.00,,---,0.12,VWS V14.00,2013-10-11 02:55:00,
2013-10-10 20:00:00,37.6,15.5,23.39,West,262,3.1,4.0,40,0.00,,---,0.12,VWS V14.00,2013-10-11 03:00:00,
2013-10-10 20:05:00,37.6,15.5,23.39,West,271,0.0,2.2,40,0.00,,---,0.12,VWS V14.00,2013-10-11 03:05:00,
2013-10-10 20:10:00,37.4,15.3,23.39,WNW,292,0.0,3.1,40,0.00,,---,0.12,VWS V14.00,2013-10-11 03:10:00,
2013-10-10 20:15:00,37.2,15.1,23.39,West,271,0.0,0.0,40,0.00,,---,0.12,VWS V14.00,2013-10-11 03:15:00,
2013-10-10 20:20:00,36.9,14.8,23.39,West,271,0.0,0.0,40,0.00,,---,0.12,VWS V14.00,2013-10-11 03:20:00,
2013-10-10 20:25:00,36.7,14.6,23.39,West,271,0.0,0.0,40,0.00,,---,0.12,VWS V14.00,2013-10-11 03:25:00,
2013-10-10 20:30:00,36.3,14.3,23.39,West,271,0.0,0.0,40,0.00,,---,0.12,VWS V14.00,2013-10-11 03:30:00,
2013-10-10 20:35:00,36.0,14.0,23.39,West,271,0.0,0.0,40,0.00,,---,0.12,VWS V14.00,2013-10-11 03:35:00,
2013-10-10 20:40:00,35.8,13.8,23.39,West,271,0.0,0.0,40,0.00,,---,0.12,VWS V14.00,2013-10-11 03:40:00,
2013-10-10 20:45:00,35.6,13.7,23.39,West,271,0.0,0.0,40,0.00,,---,0.12,VWS V14.00,2013-10-11 03:45:00,
2013-10-10 20:50:00,35.4,14.1,23.39,West,271,0.0,0.0,41,0.00,,---,0.12,VWS V14.00,2013-10-11 03:50:00,
2013-10-10 20:55:00,35.1,13.8,23.39,West,271,0.0,0.0,41,0.00,,---,0.12,VWS V14.00,2013-10-11 03:55:00,
2013-10-10 21:00:00,34.9,13.6,23.39,West,271,0.0,0.0,41,0.00,,---,0.12,VWS V14.00,2013-10-11 04:00:00,
2013-10-10 21:01:00,34.9,13.6,23.39,West,271,0.0,0.0,41,0.00,,---,0.12,VWS V14.00,2013-10-11 04:01:00,
2013-10-10 21:02:00,34.9,13.6,23.39,West,271,0.0,0.0,41,0.00,,---,0.12,VWS V14.00,2013-10-11 04:02:00,
2013-10-10 21:03:00,34.9,13.6,23.39,West,271,0.0,0.0,41,0.00,,---,0.12,VWS V14.00,2013-10-11 04:03:00,
2013-10-10 21:04:00,34.7,13.4,23.39,West,271,0.0,0.0,41,0.00,,---,0.12,VWS V14.00,2013-10-11 04:04:00,
2013-10-10 21:09:00,34.3,13.1,23.39,West,271,0.0,0.0,41,0.00,,---,0.12,VWS V14.00,2013-10-11 04:09:00,
2013-10-10 21:14:00,34.0,12.8,23.39,West,271,0.0,0.0,41,0.00,,---,0.12,VWS V14.00,2013-10-11 04:14:00,
2013-10-10 21:20:00,34.0,12.8,23.39,West,271,0.0,0.0,41,0.00,,---,0.12,VWS V14.00,2013-10-11 04:20:00,
2013-10-10 21:25:00,34.2,12.9,23.39,West,271,0.0,0.0,41,0.00,,---,0.12,VWS V14.00,2013-10-11 04:25:00,
2013-10-10 21:30:00,34.2,12.9,23.39,SW,231,0.0,0.0,41,0.00,,---,0.12,VWS V14.00,2013-10-11 04:30:00,
2013-10-10 21:35:00,34.2,12.9,23.39,SW,233,0.0,0.0,41,0.00,,---,0.12,VWS V14.00,2013-10-11 04:35:00,
2013-10-10 21:40:00,34.0,12.8,23.39,SW,233,0.0,0.0,41,0.00,,---,0.12,VWS V14.00,2013-10-11 04:40:00,
2013-10-10 21:45:00,33.6,13.0,23.39,SW,233,0.0,0.0,42,0.00,,---,0.12,VWS V14.00,2013-10-11 04:45:00,
2013-10-10 21:50:00,33.4,12.8,23.42,SW,233,0.0,0.0,42,0.00,,---,0.12,VWS V14.00,2013-10-11 04:50:00,
2013-10-10 21:55:00,33.4,12.8,23.42,SW,233,0.0,0.0,42,0.00,,---,0.12,VWS V14.00,2013-10-11 04:55:00,
2013-10-10 22:00:00,33.4,12.8,23.42,SW,233,0.0,0.0,42,0.00,,---,0.12,VWS V14.00,2013-10-11 05:00:00,
2013-10-10 22:05:00,33.4,12.8,23.42,SW,233,0.0,0.0,42,0.00,,---,0.12,VWS V14.00,2013-10-11 05:05:00,
2013-10-10 22:10:00,33.3,12.7,23.42,SW,233,0.0,0.0,42,0.00,,---,0.12,VWS V14.00,2013-10-11 05:10:00,
2013-10-10 22:15:00,32.9,12.3,23.42,WSW,237,0.0,0.0,42,0.00,,---,0.12,VWS V14.00,2013-10-11 05:15:00,
2013-10-10 22:20:00,32.7,12.2,23.42,West,263,0.0,0.0,42,0.00,,---,0.12,VWS V14.00,2013-10-11 05:20:00,
2013-10-10 22:25:00,32.7,12.2,23.42,West,263,0.0,0.0,42,0.00,,---,0.12,VWS V14.00,2013-10-11 05:25:00,
2013-10-10 22:30:00,32.5,12.0,23.42,West,263,0.0,0.0,42,0.00,,---,0.12,VWS V14.00,2013-10-11 05:30:00,
2013-10-10 22:35:00,32.5,12.0,23.42,West,263,0.0,0.0,42,0.00,,---,0.12,VWS V14.00,2013-10-11 05:35:00,
2013-10-10 22:40:00,32.4,11.9,23.42,West,263,0.0,0.0,42,0.00,,---,0.12,VWS V14.00,2013-10-11 05:40:00,
2013-10-10 22:45:00,32.2,11.7,23.42,West,263,0.0,0.0,42,0.00,,---,0.12,VWS V14.00,2013-10-11 05:45:00,
2013-10-10 22:50:00,32.2,11.7,23.42,West,263,0.0,0.0,42,0.00,,---,0.12,VWS V14.00,2013-10-11 05:50:00,
2013-10-10 22:55:00,32.2,11.7,23.42,West,263,0.0,0.0,42,0.00,,---,0.12,VWS V14.00,2013-10-11 05:55:00,
2013-10-10 23:00:00,32.0,11.5,23.42,West,263,0.0,0.0,42,0.00,,---,0.12,VWS V14.00,2013-10-11 06:00:00,
2013-10-10 23:05:00,32.0,11.5,23.42,West,263,0.0,0.0,42,0.00,,---,0.12,VWS V14.00,2013-10-11 06:05:00,
2013-10-10 23:10:00,31.8,11.4,23.42,West,263,0.0,0.0,42,0.00,,---,0.12,VWS V14.00,2013-10-11 06:10:00,
2013-10-10 23:15:00,31.3,10.9,23.42,West,263,0.0,0.0,42,0.00,,---,0.12,VWS V14.00,2013-10-11 06:15:00,
2013-10-10 23:20:00,31.1,10.7,23.42,West,263,0.0,0.0,42,0.00,,---,0.12,VWS V14.00,2013-10-11 06:20:00,
2013-10-10 23:25:00,30.9,10.5,23.42,West,263,0.0,0.0,42,0.00,,---,0.12,VWS V14.00,2013-10-11 06:25:00,
2013-10-10 23:30:00,30.7,10.4,23.42,West,263,0.0,0.0,42,0.00,,---,0.12,VWS V14.00,2013-10-11 06:30:00,
2013-10-10 23:35:00,30.6,10.2,23.42,West,263,0.0,0.0,42,0.00,,---,0.12,VWS V14.00,2013-10-11 06:35:00,
2013-10-10 23:41:00,30.2,10.4,23.42,West,263,0.0,0.0,43,0.00,,---,0.12,VWS V14.00,2013-10-11 06:41:00,
2013-10-10 23:46:00,30.2,10.4,23.42,West,263,0.0,0.0,43,0.00,,---,0.12,VWS V14.00,2013-10-11 06:46:00,
2013-10-10 23:51:00,30.2,10.4,23.42,West,263,0.0,0.0,43,0.00,,---,0.12,VWS V14.00,2013-10-11 06:51:00,
2013-10-10 23:56:00,30.4,10.6,23.42,West,263,0.0,0.0,43,0.00,,---,0.12,VWS V14.00,2013-10-11 06:56:00,